(162173) Ryugu
ephemeris date magn radius delta ra dec elong phase
Today18 Oct 202522.21.319 AU1.102 AU18h50m-16°01'77.7°47.6°
(162173) Ryugu - 2025-10-18
astro.vanbuitenen.nl


 
-1 year
-1 month
-1 day
Now
+1 day
+1 month
+1 year

The interactive orbit chart above shows the body's path through the solar system and its position at the given date. Green and blue lines are shown perpendicular to the ecliptic plane: Green if the path is above the ecliptic plane, blue if it is below. (Left-click and drag to rotate the view; Right-click and drag to move the view; Use scroll wheel to zoom in our out.)

The orbital elements of Ryugu are:

            e (Eccentricity)                : 0.1910519
            a (Semimajor axis)              : 1.1909629
            i (Inclination)                 : 5.86670
            Ω (Longitude of ascending node) : 251.29358
            ω (Argument of perihelion)      : 211.60980
            M (Mean anomaly)                : 118.99553
            Epoch                           : 2025 May 05

            L (Longitude of perihelion)     : 282.76923
            B (Latitude of perihelion)      : -3.07102
            P (Orbital period in years)     : 1.30            
        

The light curve chart below shows the estimated development of the minor planet's magnitude.


The all-sky chart below shows the path of the minor planet over the same period as the light curve. The current position is marked yellow.





The following chart shows the path of the minor planet in the next few days. The field of view is optimized for (~10x50) binoculars and finderscopes.




Ephemerides:
Date       Time       RA (2000)    DEC (2000)    delta   radius  elong  phase   PA    magn
2025-10-18 00:00 UT   18 50 08.6   -16 01 06     1.102    1.319   77.7   47.6    84   22.2 
2025-10-18 04:53 UT   18 50 39.4   -16 00 48     1.103    1.318   77.6   47.6    83   22.2 
2025-10-19 00:00 UT   18 52 40.4   -15 59 32     1.107    1.317   77.3   47.6    83   22.2 
2025-10-20 00:00 UT   18 55 13.0   -15 57 48     1.111    1.314   77.0   47.6    83   22.2 
2025-10-21 00:00 UT   18 57 46.4   -15 55 55     1.116    1.312   76.6   47.6    83   22.2 
2025-10-22 00:00 UT   19 00 20.5   -15 53 52     1.121    1.310   76.2   47.6    82   22.2 
2025-10-23 00:00 UT   19 02 55.3   -15 51 40     1.125    1.307   75.8   47.6    82   22.2 
2025-10-24 00:00 UT   19 05 30.9   -15 49 17     1.130    1.305   75.5   47.6    82   22.2 
2025-10-25 00:00 UT   19 08 07.2   -15 46 44     1.135    1.303   75.1   47.6    81   22.2 
2025-10-26 00:00 UT   19 10 44.1   -15 44 01     1.139    1.300   74.8   47.5    81   22.2 
2025-10-27 00:00 UT   19 13 21.8   -15 41 08     1.143    1.298   74.4   47.5    81   22.2 
2025-10-28 00:00 UT   19 16 00.1   -15 38 05     1.148    1.295   74.0   47.5    81   22.2 
2025-10-29 00:00 UT   19 18 39.1   -15 34 51     1.152    1.293   73.7   47.5    80   22.2 
2025-10-30 00:00 UT   19 21 18.8   -15 31 27     1.156    1.290   73.3   47.5    80   22.2 
2025-10-31 00:00 UT   19 23 59.1   -15 27 52     1.161    1.288   73.0   47.5    80   22.2 


    Terminology:
            
    delta:  distance between minor planet and earth in AU
    radius: distance between minor planet and sun in AU
    magn:   magnitude (brightness) estimate    
    ra:     right ascension in hours (24h = 360deg)
    dec:    declination in degrees
    elong:  elongation in degrees (angle sun-earth-minor planet)    
    phase:  phase angle in degrees (angle sun-minor planet-earth)        
    AU:     Astronomical Unit (mean distance between earth and sun: 149597870.7 km
    

Orbital elements provided by the MPC (Minor Planet Center).
Calculations by a modified version of AAPlus, a C# implementation of the AA+ project by PJ Naughter from the algorithms presented in the book "Astronomical Algorithms" by Jean Meeus.
NGC2000 dso catalog and star labels from VizieR as provided by the Strasbourg astronomical Data Center.
Tycho2 catalog from the ESO archive.